Weather in Astrahan

Russia / Astrakhan Oblast     46°20′52″N   48°02′00″E
temp.,
°C
wind,
m/s
gust,
m/s
humid.,
%
clouds,
%
prec.,
mm/h
press.,
hPa
HPBL,
m
31 july, sat
sat3101:00+22s22430 0.0 101133
04:00+21se11430 0.0 101118
07:00+23se33360 0.0 1012106
10:00+31sse222049 0.0 10111130
13:00+36nw13146 0.0 10102996
16:00+37se431284 0.0 10083525
19:00+32se77265 0.0 1009783
22:00+25sse36560 0.0 1011156
1 august, sun
sun101:00+23sse236331 0.0 101156
04:00+23sse22634 0.0 101135
07:00+26se12505 0.0 1012100
10:00+34e34235 0.0 10121240
13:00+38ese341425 0.0 10103187
16:00+38s651430 0.0 10102333
19:00+35sse66198 0.0 1010796
22:00+27sse46435 0.0 1011103
2 august, mon
mon201:00+25sse34505 0.0 101160
04:00+24ese22529 0.0 101123
07:00+28e223714 0.0 101270
10:00+36se351561 0.0 10121250
13:00+40se76954 0.0 10114421
16:00+40se869100 0.0 10114489
19:00+36se5711100 0.0 1011701
22:00+28sse3426100 0.0 101154
3 august, tue
tue301:00+26se222991 0.0 101022
04:00+25ese112699 0.0 101117
07:00+28ese112034 0.0 101126
10:00+36ese24100 0.0 1011992
13:00+41sse3680 0.0 10094262
16:00+41sse7580 0.0 10084146
19:00+37s66103 0.0 10091001
22:00+28s44230 0.0 101067
4 august, wed
wed401:00+27ssw34290 0.0 101050
04:00+25ssw22300 0.0 101025
07:00+28sw23240 0.0 101174
10:00+36ssw22120 0.0 1011826
13:00+40w43819 0.0 10103120
16:00+41wnw4495 0.0 10093386
19:00+37nnw99162 0.0 1009999
22:00+30n5103617 0.0 1012301